www.pogodaiklimat.ru

Погода и климат >> Архив погоды >> Казахстан >> Алматы


АРХИВ ПОГОДЫ в Алматы

Время (UTC), дата Ветер
(напр.,м/с)
 
Видим.   Явления Облачность Т
(С)
Тd
(С)
f
(%)
Тe
(С)
Тes
(С)
Комфортность P
(гПа)
Po
(гПа)
Тmin
(С)
Tmax
(С)
R
(мм)
S
(см)
18 20.03 штиль 0 н/о ясно -0.7 -5.7 69 -2 -2 холодно 1021.5 919.7 +3.5
21 20.03 штиль 0 н/о дымка 6/0
[Ci fib]
-2.4 -5.3 80 -3 -3 холодно 1021.0 918.6
00 21.03 штиль 0
{4}
н/о дымка 10/0
[Ci sp]
-3.4 -5.4 86 -4 -4 холодно 1020.8 918.1
03 21.03 штиль 0 10 км 10/6 1000 м
[Cu med, cong Ac und]
-1.7 -5.0 78 -3 -2 холодно 1020.2 918.2 0
06 21.03 В 1 10 км 10/0
[Ac und Ci sp]
+1.8 -4.5 63 +1 +7 холодно 1017.4 916.8 -3.9
09 21.03 ЮВ 1 10 км 10/3 600 м
[Cb cap Ac As Ci sp]
+4.5 -3.1 58 +4 +7 прохладно 1014.8 915.5
12 21.03 В 1 10 км 10/6 600 м
[Cb cap Ac As]
+5.5 -2.1 58 +5 +5 прохладно 1014.6 915.7
15 21.03 штиль 0 н/о 10/6 600 м
[Cb cap Ac As]
+3.8 -3.1 61 +3 +3 прохладно 1017.3 917.5 +5.8
18 21.03 штиль 0 н/о 10/3 600 м
[Cb cap Ac As Ci sp]
+1.9 -4.9 61 +1 +1 прохладно 1018.7 918.1 +5.8
21 21.03 Ю 1 н/о 10/10 600 м
[Cb cap]
-0.1 -5.0 70 -2 -2 прохладно 1020.1 918.7
00 22.03 С 1
{3}
н/о 10/8 600 м
[Cb cap Ac As]
-0.4 -4.7 73 -2 -2 прохладно 1022.1 920.4
03 22.03 СВ 1 10 км 10/4 600 м
[Cb cap Ac As]
-1.1 -4.8 76 -3 -2 очень
холодно
1024.7 922.4
06 22.03 штиль 0 10 км 10/3 600 м
[Cb cap Ac As]
+3.6 -3.0 62 +3 +6 прохладно 1023.5 923.0 -1.3
09 22.03 С 1 10 км 10/3 600 м
[Cb cap Ac trans Cc]
+7.3 -1.3 54 +7 +11 по сезону 1022.5 923.4
12 22.03 С 1 10 км 10/6 600 м
[Cb cap Ac As]
+6.9 -0.3 60 +6 +6 прохладно 1022.7 923.4
15 22.03 штиль 0 н/о 10/4 600 м
[Cb cap Ci sp]
+5.9 -0.4 64 +5 +5 по сезону 1023.6 924.0 +7.7
18 22.03 штиль 0 н/о 9/0
[Ci sp]
+3.3 +0.5 82 +2 +2 по сезону 1023.7 923.2 +7.7
21 22.03 штиль 0 н/о 9/0
[Ci sp]
+1.7 +0.1 89 +1 +1 по сезону 1023.3 922.2
00 23.03 штиль 0
{2}
н/о 8/0
[Ci sp]
+0.7 -0.7 90 -1 -1 прохладно 1023.5 922.1
03 23.03 ЮЗ 1 10 км 10/0
[Ci fib]
+4.7 -0.7 68 +4 +7 по сезону 1023.2 923.1
06 23.03 штиль 0 10 км 10/0
[Ci fib]
+10.2 +0.3 50 +10 +23 опасность
простуды
1021.7 923.6 +0.4
09 23.03 штиль 0 10 км 10/4 1000 м
[Cu med, cong Ac trans Ci fib]
+14.0 +0.4 39 +14 +18 тепло 1020.3 923.6
12 23.03 Ю 1 10 км 10/4 1000 м
[Cu med, cong Ac trans Ci sp]
+13.6 -0.3 38 +14 +15 тепло 1021.0 924.1
15 23.03 штиль 0 н/о 10/0
[Ci fib]
+10.2 +2.0 57 +10 +10 тепло 1024.1 925.9 +15.6
18 23.03 штиль 0 н/о 10/0
[Ci sp]
+7.5 +1.1 64 +7 +7 по сезону 1025.8 926.4 +15.6
21 23.03 штиль 0 н/о 10/0
[Ci sp]
+6.0 -1.8 57 +6 +6 по сезону 1024.6 924.8
00 24.03 штиль 0
{3}
н/о 10/0
[Ci sp]
+5.9 -1.9 57 +5 +5 по сезону 1023.9 924.1
03 24.03 штиль 0 20 км 10/0
[Ci sp]
+11.2 +0.5 48 +11 +15 тепло 1020.3 922.7 0
06 24.03 штиль 0 10 км 10/0
[Ci]
+14.8 +0.4 37 +15 +28 опасность
простуды
1017.1 921.0 +4.9
09 24.03 штиль 0 10 км 10/0
[As op Cs]
+18.3 +1.7 33 +18 +25 тепло 1013.6 918.9
12 24.03 С 2 10 км 10/0
[Ac As Cs]
+16.2 -1.3 30 +16 +17 тепло 1012.8 917.4
15 24.03 С 1 н/о 10/0
[Ac As]
+12.8 +0.1 42 +13 +13 тепло 1015.3 918.7 +19.0
18 24.03 штиль 0 н/о 10/8 600 м
[Cb cap Ac As]
+12.8 +0.4 43 +13 +13 тепло 1015.7 919.1 +19.0
21 24.03 штиль 0 н/о 10/0
[Ac As Ci sp]
+11.2 -1.4 41 +11 +11 тепло 1015.1 918.0
00 25.03 ЮЗ 2
{4}
н/о 10/6 600 м
[Cb cap Ac As Ci sp]
+10.2 +2.0 57 +9 +9 тепло 1019.7 921.9
03 25.03 Ю 1 10 км 9/5 600 м
[Cb cap Ac lent Ci sp]
+13.0 +1.3 45 +13 +15 тепло 1019.2 922.3
06 25.03 СЗ 2 10 км 3/3 1000 м
[Cu hum]
+16.1 +4.4 46 +16 +25 тепло 1017.8 922.1 +9.6
09 25.03 СВ 1 10 км ясно +17.2 +4.1 42 +18 +29 тепло 1013.9 918.9
12 25.03 СВ 1 10 км 9/4 600 м
[Cb cap Ci sp]
+15.6 +4.5 48 +16 +17 тепло 1015.4 919.8
15 25.03 С 1 н/о 6/0
[Ci fib]
+11.4 +3.6 59 +11 +11 тепло 1017.3 920.1 +18.0
18 25.03 штиль 0 н/о 6/0
[Ci fib]
+8.4 +4.0 74 +8 +8 по сезону 1016.2 918.1 +18.0
21 25.03 ЮЗ 2 н/о 3/0
[Ci fib]
+7.0 +3.9 81 +5 +5 по сезону 1018.7 919.9
00 26.03 С 1
{5}
н/о 3/0
[Ci fib]
+6.4 +3.0 79 +5 +5 по сезону 1018.3 919.3
03 26.03 штиль 0 10 км 9/0
[Ci sp]
+9.0 +4.5 73 +8 +13 по сезону 1016.7 918.8
06 26.03 штиль 0 10 км 9/3 600 м
[Cb cap Ac trans Ci sp]
+12.9 +5.3 60 +13 +19 тепло 1013.4 917.1 +6.0
09 26.03 Ю 1 10 км 10/10 600 м
[Cb cap]
+14.1 +5.1 55 +15 +15 тепло 1016.4 920.2
12 26.03 З 1 4000 м слабый ливневой дождь 10/10 600 м
[Cb cap]
+9.8 +8.2 90 +9 +9 по сезону 1020.3 922.4
15 26.03 штиль 0 н/о слабый ливневой дождь 10/10 600 м
[Cb cap]
+6.7 +6.1 96 +6 +6 по сезону 1022.7 923.6 +14.7
18 26.03 штиль 0 н/о слабый ливневой дождь 10/10 600 м
[Cb cap]
+6.2 +5.3 94 +5 +5 по сезону 1022.7 923.3 +14.7 4
21 26.03 штиль 0 н/о ливневой дождь {туман} 10/10 600 м
[Cb cap]
+2.9 +1.9 93 +2 +2 по сезону 1025.8 924.9
00 27.03 штиль 0
{3}
н/о слабый ливневой снег 10/10 600 м
[Cb cap]
+0.9 +0.4 96 -0 -0 прохладно 1027.4 925.7
03 27.03 н/о
06 27.03 штиль 0 10 км {ливн. осадки} 10/10 600 м
[Cb cap]
+4.4 +1.5 81 +3 +3 холодно 1023.8 923.7 +0.5 11
09 27.03 С 1 10 км 10/6 600 м
[Cb cap Ac und]
+7.8 +3.8 76 +7 +9 прохладно 1020.1 921.5
12 27.03 штиль 0 10 км 10/8 600 м
[Cb cap Ac As]
+7.7 +3.2 73 +7 +7 прохладно 1021.6 922.7
15 27.03 штиль 0 н/о 10/10 600 м
[Cb cap]
+6.9 +3.5 79 +6 +6 по сезону 1023.3 924.1 +8.0

 

Местоположение метеостанции Алматы (Алматинская область, Казахстан): широта 43.23 долгота 76.93 высота над уровнем моря 851 м.

В архиве по умолчанию представлена погода в Алматы за последнюю неделю. Архивные данные за месяц целиком и за предыдущие месяцы, начиная с января 2011 года, Вы можете получить, выбрав интересующий диапазон дат из раскрывающегося списка и нажав кнопку "Ввод!".

Внимание! Время в таблицах - всемирное. Для получения местного времени необходимо прибавить поправку, которая в Алматы равна 6 ч.

Смотрите также архив погоды в соседних городах и на ближайших метеорологических станциях:

Погода в Алматы АМС (Алматинская область, Казахстан) (4 км)
Погода в Каменском плато (Алматинская область, Казахстан) (6 км)
Погода в Медеу (Алматинская область, Казахстан) (12 км)
Погода в Карасайском (Алматинская область, Казахстан) (15 км)
Погода в Шымбулаке (Алматинская область, Казахстан) (16 км)
Погода в Большом Алматинском озере (Алматинская область, Казахстан) (18 км)
Погода в Альмереке (Алматинская область, Казахстан) (21 км)
Погода в Коныролене (Алматинская область, Казахстан) (24 км)
Погода в Рыскулово (Алматинская область, Казахстан) (30 км)
Погода в Илийском (Алматинская область, Казахстан) (33 км)

Пояснения к столбцам:

Ветер - указаны скорость ветра в м/с - средняя за 10 мин, порывы в срок и между сроками (в фигурных скобках) и направление, откуда дует ветер: С - северный, СВ - северо-восточный, В - восточный, ЮВ - юго-восточный, Ю - южный, ЮЗ - юго-западный, З - западный, СЗ - северо-западный.
Видимость - горизонтальная дальность видимости в метрах или километрах. При видимости от 1 до 10 км при отсутствии осадков обычно наблюдается дымка, при ухудшении видимости до 1 км и менее - туман. В сухую погоду видимость может ухудшаться дымом, пылью или мглою.
Явления - указаны атмосферные явления, наблюдавшиеся в срок или в последний час перед сроком; фигурными скобками обозначены явления, наблюдавшиеся между сроками (за 1-3 часа до срока); квадратными скобками обозначены град или гололедные отложения с указанием их диаметра в мм.
Облачность - указаны через наклонную черту общая и нижняя облачность в баллах и высота нижней границы облаков в метрах; квадратными скобками обозначены формы облаков: Ci - перистые, Cs - перисто-слоистые, Cc - перисто-кучевые, Ac - высококучевые, As - высокослоистые, Sc - слоисто-кучевые, Ns - слоисто-дождевые, Cu - кучевые, Cb - кучево-дождевые. Подробнее классификацию облаков см. в Атласе облаков (PDF).
T - Температура воздуха - температура, измеренная на высоте 2 м над землей.
Td - Температура точки росы - температура, при понижении до которой содержащийся в воздухе водяной пар достигнет насыщения.
f - Относительная влажность воздуха - влажноcть воздуха, измеренная на высоте 2 м над землей.
Te - Эффективная температура - температура, которую ощущает одетый по сезону человек в тени. Характеристика душности погоды. При расчете учитывается влияние влажности воздуха и скорости ветра на теплоощущения человека.
Tes - Эффективная температура на солнце - температура, которую ощущает человек, с поправкой на солнечный нагрев. Характеристика знойности погоды. Зависит от высоты солнца над горизонтом, облачности и скорости ветра. Ночью, в пасмурную погоду, а также при ветре 12 м/с и более поправка равна нулю.
P - Атмосферное давление - приведенное к уровню моря атмосферное давление.
Po - Атмосферное давление - измеренное на уровне метеостанции атмосферное давление.
Tmin - Минимальная температура - минимум температуры воздуха на высоте 2 м над землей.
Tmax - Максимальная температура - максимум температуры воздуха на высоте 2 м над землей.
R - Количество осадков - Количество выпавших осадков, мм. При наведении курсора мыши на число - период времени, за который выпало указанное количество осадков.
S - Снежный покров - Высота снежного покрова, см. При наведении курсора мыши на число - состояние снежного покрова и степень покрытия местности в баллах.